Time,TemperatureF,DewpointF,PressureIn,WindDirection,WindDirectionDegrees,WindSpeedMPH,WindSpeedGustMPH,Humidity,HourlyPrecipIn,Conditions,Clouds,dailyrainin,SoftwareType,DateUTC
2013-02-22 00:01:00,21.0,20.0,-100.00,NE,55,15.0,21.0,95,0.01,,,-99.99,,2013-02-22 06:01:00,
2013-02-22 00:11:00,21.0,20.0,-100.00,NE,55,16.0,19.0,95,0.01,,,-99.99,,2013-02-22 06:11:00,
2013-02-22 00:21:00,21.0,20.0,-100.00,NE,55,16.0,21.0,95,0.01,,,-99.99,,2013-02-22 06:21:00,
2013-02-22 00:31:00,21.0,20.0,-100.00,NE,55,17.0,21.0,95,0.00,,,-99.99,,2013-02-22 06:31:00,
2013-02-22 00:42:00,21.0,20.0,-100.00,NE,55,17.0,21.0,95,0.00,,,-99.99,,2013-02-22 06:42:00,
2013-02-22 00:51:00,21.0,19.0,-100.00,NE,55,13.0,22.0,94,0.13,,,-99.99,,2013-02-22 06:51:00,
2013-02-22 01:01:00,21.0,19.0,-100.00,NE,55,13.0,22.0,94,0.13,,,-99.99,,2013-02-22 07:01:00,
2013-02-22 01:11:00,21.0,19.0,-100.00,ENE,60,16.0,21.0,94,0.06,,,-99.99,,2013-02-22 07:11:00,
2013-02-22 01:21:00,21.0,19.0,-100.00,NE,50,17.0,21.0,94,0.03,,,-99.99,,2013-02-22 07:21:00,
2013-02-22 01:31:00,21.0,19.0,-100.00,NE,50,16.0,21.0,94,0.08,,,-99.99,,2013-02-22 07:31:00,
2013-02-22 01:42:00,21.0,19.0,-100.00,NE,50,16.0,21.0,94,0.08,,,-99.99,,2013-02-22 07:42:00,
2013-02-22 01:51:00,21.0,19.0,-100.00,NE,50,14.0,18.0,93,0.06,,,-99.99,,2013-02-22 07:51:00,
2013-02-22 02:01:00,21.0,19.0,-100.00,NE,50,14.0,18.0,93,0.06,,,-99.99,,2013-02-22 08:01:00,
2013-02-22 02:11:00,21.0,19.0,-100.00,NE,50,15.0,18.0,93,0.14,,,-99.99,,2013-02-22 08:11:00,
2013-02-22 02:21:00,21.0,19.0,-100.00,NE,55,12.0,18.0,93,0.10,,,-99.99,,2013-02-22 08:21:00,
2013-02-22 02:31:00,21.0,19.0,-100.00,NE,50,11.0,14.0,93,0.06,,,-99.99,,2013-02-22 08:31:00,
2013-02-22 02:41:00,21.0,19.0,-100.00,NE,50,11.0,14.0,93,0.06,,,-99.99,,2013-02-22 08:41:00,
2013-02-22 02:52:00,20.0,19.0,-100.00,NE,40,7.0,11.0,93,0.07,,,-99.99,,2013-02-22 08:52:00,
2013-02-22 03:03:00,20.0,19.0,-100.00,NE,40,7.0,11.0,93,0.07,,,-99.99,,2013-02-22 09:03:00,
2013-02-22 03:11:00,20.0,19.0,-100.00,NE,35,7.0,9.0,93,0.06,,,-99.99,,2013-02-22 09:11:00,
2013-02-22 03:21:00,20.0,19.0,-100.00,NNE,25,8.0,10.0,93,0.04,,,-99.99,,2013-02-22 09:21:00,
2013-02-22 03:32:00,20.0,19.0,-100.00,NNE,15,7.0,9.0,93,0.04,,,-99.99,,2013-02-22 09:32:00,
2013-02-22 03:41:00,20.0,19.0,-100.00,NNE,15,7.0,9.0,93,0.04,,,-99.99,,2013-02-22 09:41:00,
2013-02-22 03:51:00,20.0,19.0,-100.00,North,10,6.0,8.0,93,0.07,,,-99.99,,2013-02-22 09:51:00,
2013-02-22 04:01:00,20.0,19.0,-100.00,North,10,6.0,8.0,93,0.07,,,-99.99,,2013-02-22 10:01:00,
2013-02-22 04:11:00,20.0,19.0,-100.00,North,10,6.0,7.0,93,0.07,,,-99.99,,2013-02-22 10:11:00,
2013-02-22 04:21:00,20.0,19.0,-100.00,North,5,6.0,7.0,93,0.07,,,-99.99,,2013-02-22 10:21:00,
2013-02-22 04:32:00,20.0,18.0,-100.00,North,0,7.0,7.0,93,0.03,,,-99.99,,2013-02-22 10:32:00,
2013-02-22 04:42:00,20.0,18.0,-100.00,North,0,7.0,7.0,93,0.03,,,-99.99,,2013-02-22 10:42:00,
2013-02-22 04:51:00,20.0,19.0,-100.00,North,0,6.0,8.0,93,0.06,,,-99.99,,2013-02-22 10:51:00,
2013-02-22 05:01:00,20.0,19.0,-100.00,North,0,6.0,8.0,93,0.06,,,-99.99,,2013-02-22 11:01:00,
2013-02-22 05:11:00,20.0,19.0,-100.00,North,355,6.0,8.0,93,0.03,,,-99.99,,2013-02-22 11:11:00,
2013-02-22 05:21:00,20.0,19.0,-100.00,NNW,345,7.0,7.0,93,0.03,,,-99.99,,2013-02-22 11:21:00,
2013-02-22 05:32:00,20.0,19.0,-100.00,NNW,345,7.0,10.0,94,0.01,,,-99.99,,2013-02-22 11:32:00,
2013-02-22 05:42:00,20.0,19.0,-100.00,NNW,345,7.0,10.0,94,0.01,,,-99.99,,2013-02-22 11:42:00,
2013-02-22 05:52:00,19.0,18.0,-100.00,NNW,335,6.0,12.0,94,0.00,,,-99.99,,2013-02-22 11:52:00,
2013-02-22 06:02:00,19.0,18.0,-100.00,NNW,335,6.0,12.0,94,0.00,,,-99.99,,2013-02-22 12:02:00,
2013-02-22 06:11:00,19.0,17.0,-100.00,NW,325,6.0,10.0,94,0.00,,,-99.99,,2013-02-22 12:11:00,
2013-02-22 06:21:00,18.0,17.0,-100.00,NNW,340,8.0,11.0,94,0.00,,,-99.99,,2013-02-22 12:21:00,
2013-02-22 06:32:00,18.0,17.0,-100.00,NNW,345,8.0,12.0,94,0.00,,,-99.99,,2013-02-22 12:32:00,
2013-02-22 06:42:00,18.0,17.0,-100.00,NNW,345,8.0,12.0,94,0.00,,,-99.99,,2013-02-22 12:42:00,
2013-02-22 06:52:00,18.0,17.0,-100.00,NNW,335,7.0,11.0,94,0.00,,,-99.99,,2013-02-22 12:52:00,
2013-02-22 07:01:00,18.0,17.0,-100.00,NNW,335,7.0,11.0,94,0.00,,,-99.99,,2013-02-22 13:01:00,
2013-02-22 07:11:00,18.0,17.0,-100.00,NNW,340,9.0,12.0,94,0.00,,,-99.99,,2013-02-22 13:11:00,
2013-02-22 07:22:00,18.0,17.0,-100.00,North,350,15.0,17.0,93,0.00,,,-99.99,,2013-02-22 13:22:00,
2013-02-22 07:32:00,18.0,17.0,-100.00,North,350,12.0,17.0,93,0.00,,,-99.99,,2013-02-22 13:32:00,
2013-02-22 07:42:00,18.0,17.0,-100.00,North,350,12.0,17.0,93,0.00,,,-99.99,,2013-02-22 13:42:00,
2013-02-22 07:51:00,18.0,17.0,-100.00,NNW,345,10.0,14.0,93,0.00,,,-99.99,,2013-02-22 13:51:00,
2013-02-22 08:01:00,18.0,17.0,-100.00,NNW,345,10.0,14.0,93,0.00,,,-99.99,,2013-02-22 14:01:00,
2013-02-22 08:11:00,18.0,17.0,-100.00,NNW,345,12.0,16.0,93,0.00,,,-99.99,,2013-02-22 14:11:00,
2013-02-22 08:21:00,19.0,17.0,-100.00,NNW,340,11.0,16.0,92,0.00,,,-99.99,,2013-02-22 14:21:00,
2013-02-22 08:32:00,19.0,17.0,-100.00,NNW,330,11.0,14.0,92,0.00,,,-99.99,,2013-02-22 14:32:00,
2013-02-22 08:42:00,19.0,17.0,-100.00,NNW,330,11.0,14.0,92,0.00,,,-99.99,,2013-02-22 14:42:00,
2013-02-22 08:52:00,19.0,17.0,-100.00,NNW,330,9.0,16.0,91,0.00,,,-99.99,,2013-02-22 14:52:00,
2013-02-22 09:01:00,19.0,17.0,-100.00,NNW,330,9.0,16.0,91,0.00,,,-99.99,,2013-02-22 15:01:00,
2013-02-22 09:11:00,19.0,17.0,-100.00,NNW,330,9.0,13.0,91,0.00,,,-99.99,,2013-02-22 15:11:00,
2013-02-22 09:21:00,18.0,16.0,-100.00,NW,315,7.0,12.0,91,0.00,,,-99.99,,2013-02-22 15:21:00,
2013-02-22 09:32:00,20.0,17.0,-100.00,NW,325,7.0,14.0,89,0.00,,,-99.99,,2013-02-22 15:32:00,
2013-02-22 09:41:00,20.0,17.0,-100.00,NW,325,7.0,14.0,89,0.00,,,-99.99,,2013-02-22 15:41:00,
2013-02-22 09:52:00,20.0,17.0,-100.00,NW,325,12.0,17.0,87,0.00,,,-99.99,,2013-02-22 15:52:00,
2013-02-22 10:01:00,20.0,17.0,-100.00,NW,325,12.0,17.0,87,0.00,,,-99.99,,2013-02-22 16:01:00,
2013-02-22 10:12:00,20.0,17.0,-100.00,NW,320,10.0,18.0,86,0.00,,,-99.99,,2013-02-22 16:12:00,
2013-02-22 10:21:00,20.0,16.0,-100.00,NW,315,8.0,14.0,85,0.00,,,-99.99,,2013-02-22 16:21:00,
2013-02-22 10:32:00,21.0,17.0,-100.00,NW,325,7.0,15.0,84,0.00,,,-99.99,,2013-02-22 16:32:00,
2013-02-22 10:42:00,21.0,17.0,-100.00,NW,325,7.0,15.0,84,0.00,,,-99.99,,2013-02-22 16:42:00,
2013-02-22 10:52:00,21.0,17.0,-100.00,NW,320,11.0,15.0,82,0.00,,,-99.99,,2013-02-22 16:52:00,
2013-02-22 11:01:00,21.0,17.0,-100.00,NW,320,11.0,15.0,82,0.00,,,-99.99,,2013-02-22 17:01:00,
2013-02-22 11:11:00,22.0,17.0,-100.00,NNW,335,10.0,16.0,81,0.00,,,-99.99,,2013-02-22 17:11:00,
2013-02-22 11:21:00,22.0,17.0,-100.00,NW,305,9.0,17.0,81,0.00,,,-99.99,,2013-02-22 17:21:00,
2013-02-22 11:31:00,21.0,16.0,-100.00,NW,315,13.0,17.0,81,0.00,,,-99.99,,2013-02-22 17:31:00,
2013-02-22 11:42:00,21.0,16.0,-100.00,NW,315,13.0,17.0,81,0.00,,,-99.99,,2013-02-22 17:42:00,
2013-02-22 11:52:00,22.0,17.0,-100.00,NW,315,9.0,14.0,79,0.00,,,-99.99,,2013-02-22 17:52:00,
2013-02-22 12:01:00,22.0,17.0,-100.00,NW,315,9.0,14.0,79,0.00,,,-99.99,,2013-02-22 18:01:00,
2013-02-22 12:12:00,23.0,17.0,-100.00,NW,305,13.0,16.0,78,0.00,,,-99.99,,2013-02-22 18:12:00,
2013-02-22 12:22:00,23.0,17.0,-100.00,WNW,295,12.0,16.0,78,0.00,,,-99.99,,2013-02-22 18:22:00,
2013-02-22 12:32:00,23.0,17.0,-100.00,NW,305,14.0,17.0,77,0.00,,,-99.99,,2013-02-22 18:32:00,
2013-02-22 12:42:00,23.0,17.0,-100.00,NW,305,14.0,17.0,77,0.00,,,-99.99,,2013-02-22 18:42:00,
2013-02-22 12:52:00,23.0,17.0,-100.00,WNW,290,14.0,17.0,77,0.00,,,-99.99,,2013-02-22 18:52:00,
2013-02-22 13:01:00,23.0,17.0,-100.00,WNW,290,14.0,17.0,77,0.00,,,-99.99,,2013-02-22 19:01:00,
2013-02-22 13:11:00,22.0,17.0,-100.00,WNW,300,13.0,17.0,77,0.00,,,-99.99,,2013-02-22 19:11:00,
2013-02-22 13:21:00,22.0,16.0,-100.00,NW,305,15.0,17.0,77,0.00,,,-99.99,,2013-02-22 19:21:00,
2013-02-22 13:31:00,22.0,17.0,-100.00,WNW,300,16.0,19.0,78,0.00,,,-99.99,,2013-02-22 19:31:00,
2013-02-22 13:41:00,22.0,17.0,-100.00,WNW,300,16.0,19.0,78,0.00,,,-99.99,,2013-02-22 19:41:00,
2013-02-22 13:52:00,22.0,17.0,-100.00,WNW,290,16.0,20.0,77,0.00,,,-99.99,,2013-02-22 19:52:00,
2013-02-22 14:01:00,22.0,17.0,-100.00,WNW,290,16.0,20.0,77,0.00,,,-99.99,,2013-02-22 20:01:00,
2013-02-22 14:11:00,24.0,17.0,-100.00,WNW,295,15.0,21.0,77,0.00,,,-99.99,,2013-02-22 20:11:00,
2013-02-22 14:21:00,24.0,17.0,-100.00,WNW,290,12.0,20.0,77,0.00,,,-99.99,,2013-02-22 20:21:00,
2013-02-22 14:31:00,22.0,16.0,-100.00,WNW,295,18.0,21.0,76,0.00,,,-99.99,,2013-02-22 20:31:00,
2013-02-22 14:41:00,22.0,16.0,-100.00,WNW,295,18.0,21.0,76,0.00,,,-99.99,,2013-02-22 20:41:00,
2013-02-22 14:52:00,23.0,17.0,-100.00,WNW,290,17.0,23.0,76,0.00,,,-99.99,,2013-02-22 20:52:00,
2013-02-22 15:01:00,23.0,17.0,-100.00,WNW,290,17.0,23.0,76,0.00,,,-99.99,,2013-02-22 21:01:00,
2013-02-22 15:11:00,23.0,17.0,-100.00,WNW,295,18.0,22.0,75,0.00,,,-99.99,,2013-02-22 21:11:00,
2013-02-22 15:21:00,23.0,17.0,-100.00,WNW,295,17.0,22.0,75,0.00,,,-99.99,,2013-02-22 21:21:00,
2013-02-22 15:32:00,22.0,16.0,-100.00,WNW,300,19.0,22.0,75,0.00,,,-99.99,,2013-02-22 21:32:00,
2013-02-22 15:42:00,22.0,16.0,-100.00,WNW,300,19.0,22.0,75,0.00,,,-99.99,,2013-02-22 21:42:00,
2013-02-22 15:51:00,22.0,16.0,-100.00,NW,310,17.0,21.0,75,0.00,,,-99.99,,2013-02-22 21:51:00,
2013-02-22 16:01:00,22.0,16.0,-100.00,NW,310,17.0,21.0,75,0.00,,,-99.99,,2013-02-22 22:01:00,
2013-02-22 16:11:00,22.0,16.0,-100.00,NW,305,16.0,22.0,74,0.00,,,-99.99,,2013-02-22 22:11:00,
2013-02-22 16:21:00,22.0,15.0,-100.00,NW,310,14.0,19.0,75,0.00,,,-99.99,,2013-02-22 22:21:00,
2013-02-22 16:31:00,22.0,15.0,-100.00,NW,305,12.0,16.0,74,0.00,,,-99.99,,2013-02-22 22:31:00,
2013-02-22 16:41:00,22.0,15.0,-100.00,NW,305,12.0,16.0,74,0.00,,,-99.99,,2013-02-22 22:41:00,
2013-02-22 16:51:00,22.0,16.0,-100.00,NW,305,12.0,17.0,77,0.00,,,-99.99,,2013-02-22 22:51:00,
2013-02-22 17:01:00,22.0,16.0,-100.00,NW,305,12.0,17.0,77,0.00,,,-99.99,,2013-02-22 23:01:00,
2013-02-22 17:11:00,22.0,16.0,-100.00,NW,305,9.0,17.0,77,0.00,,,-99.99,,2013-02-22 23:11:00,
2013-02-22 17:21:00,22.0,16.0,-100.00,NW,310,9.0,16.0,78,0.00,,,-99.99,,2013-02-22 23:21:00,
2013-02-22 17:31:00,22.0,16.0,-100.00,NW,310,9.0,15.0,80,0.00,,,-99.99,,2013-02-22 23:31:00,
2013-02-22 17:41:00,22.0,16.0,-100.00,NW,310,9.0,15.0,80,0.00,,,-99.99,,2013-02-22 23:41:00,
2013-02-22 17:52:00,21.0,16.0,-100.00,NW,305,9.0,15.0,81,0.00,,,-99.99,,2013-02-22 23:52:00,
2013-02-22 18:01:00,21.0,16.0,-100.00,NW,305,9.0,15.0,81,0.00,,,-99.99,,2013-02-23 00:01:00,
2013-02-22 18:11:00,21.0,16.0,-100.00,NW,310,13.0,14.0,79,0.00,,,-99.99,,2013-02-23 00:11:00,
2013-02-22 18:21:00,21.0,16.0,-100.00,NW,305,10.0,14.0,78,0.00,,,-99.99,,2013-02-23 00:21:00,
2013-02-22 18:32:00,21.0,15.0,-100.00,NW,305,11.0,14.0,77,0.00,,,-99.99,,2013-02-23 00:32:00,
2013-02-22 18:41:00,21.0,15.0,-100.00,NW,305,11.0,14.0,77,0.00,,,-99.99,,2013-02-23 00:41:00,
2013-02-22 18:51:00,21.0,15.0,-100.00,WNW,300,9.0,14.0,77,0.00,,,-99.99,,2013-02-23 00:51:00,
2013-02-22 19:01:00,21.0,15.0,-100.00,WNW,300,9.0,14.0,77,0.00,,,-99.99,,2013-02-23 01:01:00,
2013-02-22 19:11:00,21.0,15.0,-100.00,WNW,300,7.0,11.0,78,0.00,,,-99.99,,2013-02-23 01:11:00,
2013-02-22 19:21:00,21.0,15.0,-100.00,NW,305,8.0,11.0,78,0.00,,,-99.99,,2013-02-23 01:21:00,
2013-02-22 19:31:00,21.0,15.0,-100.00,WNW,285,7.0,10.0,78,0.00,,,-99.99,,2013-02-23 01:31:00,
2013-02-22 19:41:00,21.0,15.0,-100.00,WNW,285,7.0,10.0,78,0.00,,,-99.99,,2013-02-23 01:41:00,
2013-02-22 19:51:00,21.0,15.0,-100.00,WNW,295,6.0,12.0,78,0.00,,,-99.99,,2013-02-23 01:51:00,
2013-02-22 20:01:00,21.0,15.0,-100.00,WNW,295,6.0,12.0,78,0.00,,,-99.99,,2013-02-23 02:01:00,
2013-02-22 20:11:00,21.0,15.0,-100.00,WNW,295,7.0,10.0,78,0.00,,,-99.99,,2013-02-23 02:11:00,
2013-02-22 20:21:00,21.0,15.0,-100.00,WNW,290,7.0,9.0,78,0.00,,,-99.99,,2013-02-23 02:21:00,
2013-02-22 20:31:00,20.0,15.0,-100.00,WNW,295,7.0,13.0,78,0.00,,,-99.99,,2013-02-23 02:31:00,
2013-02-22 20:41:00,20.0,15.0,-100.00,WNW,295,7.0,13.0,78,0.00,,,-99.99,,2013-02-23 02:41:00,
2013-02-22 20:52:00,20.0,15.0,-100.00,WNW,290,7.0,11.0,78,0.00,,,-99.99,,2013-02-23 02:52:00,
2013-02-22 21:01:00,20.0,15.0,-100.00,WNW,290,7.0,11.0,78,0.00,,,-99.99,,2013-02-23 03:01:00,
2013-02-22 21:11:00,20.0,15.0,-100.00,WNW,295,9.0,12.0,78,0.00,,,-99.99,,2013-02-23 03:11:00,
2013-02-22 21:21:00,20.0,15.0,-100.00,WNW,300,9.0,12.0,78,0.00,,,-99.99,,2013-02-23 03:21:00,
2013-02-22 21:32:00,20.0,15.0,-100.00,WNW,295,9.0,13.0,77,0.00,,,-99.99,,2013-02-23 03:32:00,
2013-02-22 21:41:00,20.0,15.0,-100.00,WNW,295,9.0,13.0,77,0.00,,,-99.99,,2013-02-23 03:41:00,
2013-02-22 21:51:00,20.0,15.0,-100.00,WNW,290,9.0,12.0,78,0.00,,,-99.99,,2013-02-23 03:51:00,
2013-02-22 22:01:00,20.0,15.0,-100.00,WNW,290,9.0,12.0,78,0.00,,,-99.99,,2013-02-23 04:01:00,
2013-02-22 22:11:00,20.0,15.0,-100.00,WNW,285,9.0,10.0,78,0.00,,,-99.99,,2013-02-23 04:11:00,
2013-02-22 22:21:00,20.0,14.0,-100.00,WNW,285,11.0,13.0,78,0.00,,,-99.99,,2013-02-23 04:21:00,
2013-02-22 22:31:00,19.0,14.0,-100.00,West,280,6.0,12.0,79,0.00,,,-99.99,,2013-02-23 04:31:00,
2013-02-22 22:41:00,19.0,14.0,-100.00,West,280,6.0,12.0,79,0.00,,,-99.99,,2013-02-23 04:41:00,
2013-02-22 22:51:00,18.0,13.0,-100.00,West,275,9.0,10.0,81,0.00,,,-99.99,,2013-02-23 04:51:00,
2013-02-22 23:02:00,18.0,13.0,-100.00,West,275,9.0,10.0,81,0.00,,,-99.99,,2013-02-23 05:02:00,
2013-02-22 23:12:00,17.0,13.0,-100.00,West,280,7.0,11.0,82,0.00,,,-99.99,,2013-02-23 05:12:00,
2013-02-22 23:22:00,17.0,13.0,-100.00,West,280,8.0,10.0,83,0.00,,,-99.99,,2013-02-23 05:22:00,
2013-02-22 23:32:00,17.0,13.0,-100.00,WNW,290,7.0,9.0,84,0.00,,,-99.99,,2013-02-23 05:32:00,
2013-02-22 23:41:00,17.0,13.0,-100.00,WNW,290,7.0,9.0,84,0.00,,,-99.99,,2013-02-23 05:41:00,
2013-02-22 23:52:00,17.0,13.0,-100.00,WNW,290,8.0,10.0,85,0.00,,,-99.99,,2013-02-23 05:52:00,